Retour au catalogue

SL-12 R/B(2)

ActifMEO
NORAD 24897·ROCKET BODY·🇷🇺 Russia

Lancé Aug 14, 1997 depuis Baikonur Cosmodrome

Loading…

Prochains Passages (prochaines 24 heures)

TLE

FraisSource: Space-Track

Époque: Sep 14, 2026, 12:25 UTC

1 24897U 97041D   26257.51804348 -.00000007  00000-0  00000-0 0  9994
2 24897  14.5207 357.4473 0357637 303.9817  74.4981  1.00009462106255

Suivez SL-12 R/B(2) en temps réel avec AllMySat

Download on the App Store